Simultaneous Nadir Overpasses (SNOs) Predictions

Prediction of SNOs between GOES-16 and NPP Satellite Orbit:

Table of predicted SNOs for the next 14.0 days since TLE Epoch: 7/30/2022
Index Date Time (GOES-16) GOES-16 Lat,Lon NPP Lat,Lon Distance(km) Time Diff (sec)
1 07/31/2022 06:39:09 0.02, -75.20 0.65, -78.01 320.20 80
2 08/01/2022 06:17:46 0.02, -75.20 -0.39, -73.49 196.49 80
3 08/02/2022 18:39:43 -0.02, -75.22 -0.82, -78.79 406.59 80
4 08/03/2022 18:23:40 -0.02, -75.23 0.22, -74.27 110.50 80
5 08/05/2022 06:45:28 0.02, -75.24 1.00, -79.53 489.72 80
6 08/06/2022 06:24:05 0.02, -75.25 -0.04, -75.01 27.20 80
7 08/08/2022 18:27:18 0.01, -75.28 -0.13, -75.79 59.35 80
8 08/09/2022 18:11:15 0.01, -75.29 0.91, -71.27 457.96 80
9 08/11/2022 06:33:04 -0.00, -75.30 0.25, -76.55 141.62 80
10 08/12/2022 06:11:40 -0.00, -75.31 -0.73, -72.01 376.06 80
